This demonstration page uses our WeatherBlox Daily Observations layout. Learn more.

Left ArrowRight Arrow

31.84235, -102.49876

Hourly Observations for October 6, 2022

Temp ( °F °C ) Dew Point ( °F °C ) Humidity (%) Winds ( mph kmh ) Pressure ( in mb ) Visibility ( mi km ) Precip ( " mm )
12:53 am 00:53 Mostly Cloudy 64 17.8 58 14.4 80 80 N 10 17 30.09 1019 10 16 0.00 0.00
1:53 am 01:53 Partly Cloudy 64 17.8 58 14.4 80 80 NNE 9 15 30.09 1019 10 16 0.00 0.00
2:53 am 02:53 Partly Cloudy 63 17.2 57 13.9 81 81 NNE 8 13 30.09 1019 10 16 0.01 0.13
3:53 am 03:53 Mostly Clear 63 17.2 57 13.9 81 81 NNE 9 15 30.09 1019 10 16 0.00 0.00
4:53 am 04:53 Mostly Clear 63 17.2 57 13.9 81 81 NNE 7 11 30.09 1019 10 16 0.00 0.00
5:53 am 05:53 Mostly Clear 63 17.2 57 13.9 81 81 NE 9 15 30.10 1019 10 16 0.00 0.00
6:53 am 06:53 Clear 62 16.7 57 13.9 84 84 NE 8 13 30.12 1020 10 16 0.00 0.00
7:53 am 07:53 Cloudy 62 16.7 57 13.9 84 84 NE 8 13 30.14 1021 10 16 0.00 0.00
8:53 am 08:53 Partly Cloudy 63 17.2 57 13.9 81 81 NE 9 15 30.16 1021 10 16 0.00 0.00
9:53 am 09:53 Sunny 67 19.4 56 13.3 68 68 NE 10 17 30.17 1022 10 16 0.00 0.00
10:53 am 10:53 Mostly Sunny 70 21.1 54 12.2 57 57 E 8 13 30.18 1022 10 16 0.00 0.00
11:53 am 11:53 Sunny 74 23.3 54 12.2 50 50 undefined N/A 30.18 1022 10 16 0.00 0.00
12:53 pm 12:53 Sunny 75 23.9 54 12.2 48 48 Calm 30.16 1021 10 16 0.00 0.00
1:53 pm 13:53 Mostly Cloudy 77 25 53 11.7 43 43 E 5 7 30.14 1021 10 16 0.00 0.00
2:53 pm 14:53 Mostly Cloudy 78 25.6 52 11.1 40 40 Calm 30.11 1020 10 16 0.00 0.00
3:18 pm 15:18 Partly Cloudy with Nearby Thunderstorms 77 25 51 10.6 40 40 SE 6 9 30.05 1018 10 16 0.00 0.00
3:33 pm 15:33 Mostly Cloudy with Light Rain 76 24.4 52 11.1 43 43 ESE 16 26 30.05 1018 10 16 0.01 0.13
3:53 pm 15:53 Cloudy 74 23.3 52 11.1 46 46 E 17 28 30.11 1020 10 16 0.01 0.13
4:53 pm 16:53 Sunny with Light Rain 77 25 49 9.4 37 37 E 9 15 30.09 1019 10 16 0.01 0.13
5:53 pm 17:53 Mostly Cloudy 77 25 51 10.6 40 40 ENE 7 11 30.09 1019 10 16 0.01 0.13
6:53 pm 18:53 Mostly Cloudy 77 25 51 10.6 40 40 ENE 7 11 30.09 1019 10 16 0.00 0.00
7:53 pm 19:53 Mostly Cloudy 73 22.8 51 10.6 46 46 ENE 9 15 30.11 1020 10 16 0.00 0.00
8:53 pm 20:53 Mostly Cloudy 70 21.1 53 11.7 55 55 NE 7 11 30.12 1020 10 16 0.00 0.00
9:53 pm 21:53 Cloudy 72 22.2 52 11.1 49 49 NNE 7 11 30.13 1020 10 16 0.00 0.00
10:53 pm 22:53 Cloudy 71 21.7 51 10.6 49 49 NNE 5 7 30.14 1021 10 16 0.00 0.00
11:53 pm 23:53 Mostly Clear 70 21.1 51 10.6 51 51 NNE 6 9 30.14 1021 10 16 0.00 0.00

Powered by AerisWeather